Location: Berlin
(42.3812°N, 71.6370°W)
Time: 23:14:49
(UTC+00:00)

USA 281 - Pass Details

Date: 15 November 2025
Orbit: 1079 x 1080 km, 106.0° (Epoch: 08 December)

Event Time Altitude Azimuth Distance (km) Brightness Sun altitude
Exits shadow 01:07:18 36° 299° (WNW) 1,636 4.4 -40.9°
Drops below altitude 10° 01:11:28 10° 326° (NW) 2,927 5.9 -41.7°
Sets 01:14:07 0° 332° (NNW) 3,887 6.6 -42.2°
